Location: Azul
(36.7830°S, 59.8500°W)
Time: 10:09:40
(UTC-03:00)

ISS - Pass Details

Date: 26 March 2020
Orbit: 416 x 423 km, 51.6° (Epoch: 02 April)

Event Time Altitude Azimuth Distance (km) Brightness Sun altitude
Exits shadow 05:42:39 53° 301° (WNW) 533 -3.7 -17.9°
Maximum altitude 05:43:22 83° 221° (SW) 439 -3.8 -17.7°
Drops below altitude 10° 05:46:49 10° 132° (SE) 1,537 0.0 -17.1°
Sets 05:48:57 0° 131° (SE) 2,409 1.1 -16.6°
